Time,TemperatureF,DewpointF,PressureIn,WindDirection,WindDirectionDegrees,WindSpeedMPH,WindSpeedGustMPH,Humidity,HourlyPrecipIn,Conditions,Clouds,dailyrainin,SolarRadiationWatts/m^2,SoftwareType,DateUTC
2013-02-27 00:09:00,28.8,25.7,30.15,ENE,64,8.0,9.0,88,0.00,,CLR,0.00,0.00,VWS V14.01,2013-02-27 05:09:00,
2013-02-27 00:19:00,28.6,25.5,30.14,ENE,76,4.0,10.0,88,0.00,,CLR,0.00,0.00,VWS V14.01,2013-02-27 05:19:00,
2013-02-27 00:29:00,28.5,25.7,30.14,East,80,6.0,14.0,89,0.00,,CLR,0.00,0.00,VWS V14.01,2013-02-27 05:29:00,
2013-02-27 00:39:00,28.5,25.4,30.13,East,96,5.0,11.0,88,0.00,,CLR,0.00,0.00,VWS V14.01,2013-02-27 05:39:00,
2013-02-27 00:49:00,28.5,25.4,30.13,East,85,8.0,11.0,88,0.00,,BKN028,0.00,0.00,VWS V14.01,2013-02-27 05:49:00,
2013-02-27 00:59:00,28.5,25.7,30.14,ENE,78,7.0,11.0,89,0.00,,BKN028,0.00,0.00,VWS V14.01,2013-02-27 05:59:00,
2013-02-27 01:09:00,28.4,25.6,30.13,East,83,6.0,11.0,89,0.00,,BKN028,0.00,0.00,VWS V14.01,2013-02-27 06:09:00,
2013-02-27 01:19:00,28.3,25.5,30.12,East,84,3.0,10.0,89,0.00,,BKN028,0.00,0.00,VWS V14.01,2013-02-27 06:19:00,
2013-02-27 01:29:00,28.4,25.6,30.12,East,94,14.0,14.0,89,0.00,,BKN028,0.00,0.00,VWS V14.01,2013-02-27 06:29:00,
2013-02-27 01:39:00,28.5,25.4,30.11,ESE,103,9.0,14.0,88,0.00,,BKN028,0.00,0.00,VWS V14.01,2013-02-27 06:39:00,
2013-02-27 01:49:00,28.7,25.6,30.10,ENE,76,10.0,14.0,88,0.00,,FEW028,0.00,0.00,VWS V14.01,2013-02-27 06:49:00,
2013-02-27 01:59:00,28.8,25.7,30.09,ENE,75,2.0,15.0,88,0.00,,FEW028,0.00,0.00,VWS V14.01,2013-02-27 06:59:00,
2013-02-27 02:09:00,28.9,25.8,30.09,ENE,70,5.0,14.0,88,0.00,,FEW028,0.00,0.00,VWS V14.01,2013-02-27 07:09:00,
2013-02-27 02:19:00,29.0,25.9,30.09,East,100,9.0,14.0,88,0.00,,FEW028,0.00,0.00,VWS V14.01,2013-02-27 07:19:00,
2013-02-27 02:29:00,29.3,25.9,30.08,East,83,13.0,15.0,87,0.00,,FEW028,0.00,0.00,VWS V14.01,2013-02-27 07:29:00,
2013-02-27 02:39:00,29.4,26.0,30.08,East,84,5.0,15.0,87,0.00,,FEW028,0.00,0.00,VWS V14.01,2013-02-27 07:39:00,
2013-02-27 02:49:00,29.4,26.0,30.09,ESE,106,7.0,14.0,87,0.00,,OVC028,0.00,0.00,VWS V14.01,2013-02-27 07:49:00,
2013-02-27 02:59:00,29.4,26.0,30.10,ESE,115,4.0,13.0,87,0.00,,OVC028,0.00,0.00,VWS V14.01,2013-02-27 07:59:00,
2013-02-27 03:09:00,29.4,26.0,30.09,ENE,72,3.0,13.0,87,0.00,,OVC028,0.00,0.00,VWS V14.01,2013-02-27 08:09:00,
2013-02-27 03:19:00,29.3,26.2,30.10,ESE,110,11.0,13.0,88,0.00,,OVC028,0.00,0.00,VWS V14.01,2013-02-27 08:19:00,
2013-02-27 03:29:00,29.2,26.1,30.09,East,83,5.0,13.0,88,0.00,,OVC028,0.00,0.00,VWS V14.01,2013-02-27 08:29:00,
2013-02-27 03:39:00,29.2,26.4,30.08,ENE,74,5.0,15.0,89,0.00,,OVC028,0.00,0.00,VWS V14.01,2013-02-27 08:39:00,
2013-02-27 03:49:00,28.9,26.3,30.09,NE,54,7.0,13.0,90,0.00,,OVC020,0.00,0.00,VWS V14.01,2013-02-27 08:49:00,
2013-02-27 03:59:00,28.7,26.4,30.08,ENE,65,7.0,15.0,91,0.00,,OVC020,0.00,0.00,VWS V14.01,2013-02-27 08:59:00,
2013-02-27 04:09:00,28.6,26.6,30.06,ENE,78,11.0,19.0,92,0.00,,OVC020,0.00,0.00,VWS V14.01,2013-02-27 09:09:00,
2013-02-27 04:19:00,28.5,26.5,30.06,East,79,3.0,15.0,92,0.00,,OVC020,0.00,0.00,VWS V14.01,2013-02-27 09:19:00,
2013-02-27 04:29:00,28.5,26.7,30.05,ENE,78,9.0,16.0,93,0.00,,OVC020,0.00,0.00,VWS V14.01,2013-02-27 09:29:00,
2013-02-27 04:39:00,28.5,26.7,30.05,East,99,11.0,13.0,93,0.00,,OVC020,0.00,0.00,VWS V14.01,2013-02-27 09:39:00,
2013-02-27 04:49:00,28.5,26.7,30.05,East,94,6.0,15.0,93,0.00,,,0.00,0.00,VWS V14.01,2013-02-27 09:49:00,
2013-02-27 04:59:00,28.5,26.7,30.05,ENE,78,7.0,16.0,93,0.00,,,0.00,0.00,VWS V14.01,2013-02-27 09:59:00,
2013-02-27 05:09:00,28.5,27.0,30.04,East,83,8.0,14.0,94,0.00,,,0.00,0.00,VWS V14.01,2013-02-27 10:09:00,
2013-02-27 05:19:00,28.5,27.0,30.03,ENE,77,8.0,15.0,94,0.00,,,0.00,0.00,VWS V14.01,2013-02-27 10:19:00,
2013-02-27 05:29:00,28.4,26.9,30.02,ENE,63,9.0,13.0,94,0.00,,,0.00,0.00,VWS V14.01,2013-02-27 10:29:00,
2013-02-27 05:39:00,28.4,26.9,30.02,ENE,69,10.0,15.0,94,0.00,,,0.00,0.00,VWS V14.01,2013-02-27 10:39:00,
2013-02-27 05:49:00,28.5,27.0,30.02,ENE,59,8.0,18.0,94,0.00,,,0.00,0.00,VWS V14.01,2013-02-27 10:49:00,
2013-02-27 05:59:00,28.5,27.0,30.01,East,93,9.0,15.0,94,0.00,,,0.00,0.00,VWS V14.01,2013-02-27 10:59:00,
2013-02-27 06:09:00,28.6,27.1,30.00,East,87,7.0,19.0,94,0.00,,,0.00,0.00,VWS V14.01,2013-02-27 11:09:00,
2013-02-27 06:19:00,28.7,27.2,30.00,NE,49,11.0,19.0,94,0.00,,,0.00,0.00,VWS V14.01,2013-02-27 11:19:00,
2013-02-27 06:29:00,28.7,27.2,30.00,East,86,7.0,15.0,94,0.00,,,0.00,0.00,VWS V14.01,2013-02-27 11:29:00,
2013-02-27 06:39:00,28.8,27.3,29.99,East,79,8.0,17.0,94,0.00,,,0.00,0.00,VWS V14.01,2013-02-27 11:39:00,
2013-02-27 06:49:00,28.9,27.4,29.99,ENE,61,3.0,17.0,94,0.00,,,0.00,5.00,VWS V14.01,2013-02-27 11:49:00,
2013-02-27 06:59:00,28.9,27.4,29.98,East,92,16.0,17.0,94,0.00,,,0.00,7.00,VWS V14.01,2013-02-27 11:59:00,
2013-02-27 07:09:00,29.1,27.6,29.97,ENE,68,13.0,18.0,94,0.00,,,0.00,12.00,VWS V14.01,2013-02-27 12:09:00,
2013-02-27 07:19:00,29.2,27.7,29.96,East,84,8.0,19.0,94,0.00,,,0.00,19.00,VWS V14.01,2013-02-27 12:19:00,
2013-02-27 07:29:00,29.3,27.8,29.96,ESE,121,5.0,16.0,94,0.00,,,0.00,16.00,VWS V14.01,2013-02-27 12:29:00,
2013-02-27 07:39:00,29.4,27.9,29.96,East,79,6.0,17.0,94,0.00,,,0.00,18.00,VWS V14.01,2013-02-27 12:39:00,
2013-02-27 07:49:00,29.6,28.1,29.95,East,95,8.0,19.0,94,0.00,,,0.00,18.00,VWS V14.01,2013-02-27 12:49:00,
2013-02-27 07:59:00,29.8,28.3,29.95,East,92,13.0,19.0,94,0.00,,-RA,0.00,49.00,VWS V14.01,2013-02-27 12:59:00,
2013-02-27 08:09:00,29.9,28.4,29.95,ESE,102,12.0,22.0,94,0.00,,-RA,0.00,19.00,VWS V14.01,2013-02-27 13:09:00,
2013-02-27 08:19:00,30.0,28.5,29.94,ENE,69,7.0,22.0,94,0.00,,-RA,0.00,18.00,VWS V14.01,2013-02-27 13:19:00,
2013-02-27 08:29:00,30.1,28.8,29.93,East,80,5.0,19.0,95,0.00,,-RA,0.00,37.00,VWS V14.01,2013-02-27 13:29:00,
2013-02-27 08:39:00,30.2,28.9,29.93,East,94,9.0,19.0,95,0.00,,-RA,0.00,42.00,VWS V14.01,2013-02-27 13:39:00,
2013-02-27 08:49:00,30.3,29.0,29.92,ENE,74,9.0,18.0,95,0.00,,-RA,0.00,58.00,VWS V14.01,2013-02-27 13:49:00,
2013-02-27 08:59:00,30.4,28.9,29.91,ENE,77,10.0,23.0,94,0.00,,-RA,0.00,72.00,VWS V14.01,2013-02-27 13:59:00,
2013-02-27 09:09:00,30.6,29.1,29.90,East,84,9.0,19.0,94,0.00,,-RA,0.00,84.00,VWS V14.01,2013-02-27 14:09:00,
2013-02-27 09:19:00,30.6,29.1,29.90,ESE,110,10.0,22.0,94,0.00,,-RA,0.00,28.00,VWS V14.01,2013-02-27 14:19:00,
2013-02-27 09:29:00,30.6,29.3,29.89,East,93,10.0,21.0,95,0.00,,-RA,0.00,25.00,VWS V14.01,2013-02-27 14:29:00,
2013-02-27 09:39:00,30.7,29.4,29.90,ENE,67,8.0,24.0,95,0.00,,-RA,0.00,28.00,VWS V14.01,2013-02-27 14:39:00,
2013-02-27 09:49:00,30.7,29.4,29.88,East,96,7.0,23.0,95,0.00,,-RA,0.00,58.00,VWS V14.01,2013-02-27 14:49:00,
2013-02-27 09:59:00,30.8,29.5,29.88,ENE,71,8.0,23.0,95,0.00,,-RA,0.00,72.00,VWS V14.01,2013-02-27 14:59:00,
2013-02-27 10:09:00,30.8,29.5,29.88,East,79,9.0,21.0,95,0.00,,-RA,0.00,74.00,VWS V14.01,2013-02-27 15:09:00,
2013-02-27 10:19:00,30.8,29.5,29.88,ENE,76,10.0,22.0,95,0.00,,-RA,0.00,72.00,VWS V14.01,2013-02-27 15:19:00,
2013-02-27 10:29:00,30.7,29.4,29.87,ENE,68,13.0,19.0,95,0.00,,-RA,0.00,65.00,VWS V14.01,2013-02-27 15:29:00,
2013-02-27 10:39:00,30.7,29.4,29.86,ENE,66,11.0,16.0,95,0.00,,-RA,0.00,91.00,VWS V14.01,2013-02-27 15:39:00,
2013-02-27 10:49:00,30.8,29.5,29.86,NE,53,13.0,17.0,95,0.00,,-RA,0.00,90.00,VWS V14.01,2013-02-27 15:49:00,
2013-02-27 10:59:00,30.8,29.5,29.85,ESE,106,5.0,16.0,95,0.00,,-RA,0.00,100.00,VWS V14.01,2013-02-27 15:59:00,
2013-02-27 11:09:00,30.8,29.5,29.84,ENE,72,5.0,17.0,95,0.00,,-RA,0.00,116.00,VWS V14.01,2013-02-27 16:09:00,
2013-02-27 11:19:00,30.9,29.6,29.84,ENE,63,11.0,19.0,95,0.00,,-RA,0.00,93.00,VWS V14.01,2013-02-27 16:19:00,
2013-02-27 11:29:00,31.0,29.7,29.84,East,91,8.0,18.0,95,0.00,,-RA,0.00,84.00,VWS V14.01,2013-02-27 16:29:00,
2013-02-27 11:39:00,31.0,29.7,29.83,ENE,78,15.0,15.0,95,0.00,,-RA,0.00,102.00,VWS V14.01,2013-02-27 16:39:00,
2013-02-27 11:49:00,31.1,29.8,29.82,ESE,110,9.0,16.0,95,0.00,,RA,0.00,102.00,VWS V14.01,2013-02-27 16:49:00,
2013-02-27 11:59:00,31.2,29.9,29.82,ESE,105,7.0,14.0,95,0.00,,RA,0.00,93.00,VWS V14.01,2013-02-27 16:59:00,
2013-02-27 12:09:00,31.2,29.9,29.82,East,90,5.0,18.0,95,0.00,,RA,0.00,100.00,VWS V14.01,2013-02-27 17:09:00,
2013-02-27 12:19:00,31.2,29.9,29.81,ESE,112,10.0,18.0,95,0.00,,RA,0.00,84.00,VWS V14.01,2013-02-27 17:19:00,
2013-02-27 12:29:00,31.3,30.0,29.80,ESE,105,9.0,14.0,95,0.00,,RA,0.00,83.00,VWS V14.01,2013-02-27 17:29:00,
2013-02-27 12:39:00,31.3,30.0,29.79,ENE,67,10.0,14.0,95,0.00,,RA,0.00,81.00,VWS V14.01,2013-02-27 17:39:00,
2013-02-27 12:49:00,31.4,30.1,29.78,East,83,7.0,17.0,95,0.00,,RA,0.00,83.00,VWS V14.01,2013-02-27 17:49:00,
2013-02-27 12:59:00,31.4,30.1,29.78,East,86,10.0,21.0,95,0.00,,RA,0.00,58.00,VWS V14.01,2013-02-27 17:59:00,
2013-02-27 13:09:00,31.4,30.1,29.78,ENE,77,7.0,18.0,95,0.00,,RA,0.00,62.00,VWS V14.01,2013-02-27 18:09:00,
2013-02-27 13:19:00,31.4,30.1,29.77,East,79,7.0,19.0,95,0.00,,RA,0.00,44.00,VWS V14.01,2013-02-27 18:19:00,
2013-02-27 13:29:00,31.4,30.1,29.77,NE,50,5.0,21.0,95,0.00,,RA,0.00,42.00,VWS V14.01,2013-02-27 18:29:00,
2013-02-27 13:39:00,31.4,30.1,29.77,ENE,67,7.0,22.0,95,0.00,,RA,0.00,44.00,VWS V14.01,2013-02-27 18:39:00,
2013-02-27 13:49:00,31.4,30.1,29.76,East,80,5.0,17.0,95,0.00,,RA,0.00,39.00,VWS V14.01,2013-02-27 18:49:00,
2013-02-27 13:59:00,31.4,30.1,29.76,East,100,6.0,17.0,95,0.00,,RA,0.00,37.00,VWS V14.01,2013-02-27 18:59:00,
2013-02-27 14:09:00,31.3,30.0,29.76,East,98,5.0,14.0,95,0.00,,RA,0.00,35.00,VWS V14.01,2013-02-27 19:09:00,
2013-02-27 14:19:00,31.3,30.0,29.77,ENE,73,3.0,15.0,95,0.00,,RA,0.00,37.00,VWS V14.01,2013-02-27 19:19:00,
2013-02-27 14:29:00,31.4,30.1,29.77,ESE,119,10.0,18.0,95,0.00,,RA,0.00,30.00,VWS V14.01,2013-02-27 19:29:00,
2013-02-27 14:39:00,31.4,30.1,29.77,ENE,74,13.0,18.0,95,0.00,,RA,0.00,28.00,VWS V14.01,2013-02-27 19:39:00,
2013-02-27 14:49:00,31.4,30.1,29.77,NE,52,9.0,16.0,95,0.00,,RA,0.00,21.00,VWS V14.01,2013-02-27 19:49:00,
2013-02-27 14:59:00,31.3,30.0,29.77,East,83,13.0,19.0,95,0.00,,RA,0.00,21.00,VWS V14.01,2013-02-27 19:59:00,
2013-02-27 15:09:00,31.4,30.1,29.77,East,83,9.0,20.0,95,0.00,,RA,0.00,21.00,VWS V14.01,2013-02-27 20:09:00,
2013-02-27 15:19:00,31.3,30.0,29.77,East,83,7.0,18.0,95,0.00,,RA,0.00,26.00,VWS V14.01,2013-02-27 20:19:00,
2013-02-27 15:29:00,31.3,30.0,29.76,East,83,6.0,18.0,95,0.00,,RA,0.00,21.00,VWS V14.01,2013-02-27 20:29:00,
2013-02-27 15:39:00,31.3,30.0,29.75,East,83,13.0,18.0,95,0.00,,RA,0.00,32.00,VWS V14.01,2013-02-27 20:39:00,
2013-02-27 15:49:00,31.3,30.0,29.75,East,83,5.0,17.0,95,0.00,,,0.00,37.00,VWS V14.01,2013-02-27 20:49:00,
2013-02-27 15:59:00,31.2,29.9,29.75,East,83,15.0,15.0,95,0.00,,,0.00,19.00,VWS V14.01,2013-02-27 20:59:00,
2013-02-27 16:09:00,31.2,29.9,29.74,East,83,7.0,16.0,95,0.00,,,0.00,11.00,VWS V14.01,2013-02-27 21:09:00,
2013-02-27 16:19:00,31.2,29.9,29.73,East,83,13.0,18.0,95,0.00,,,0.00,26.00,VWS V14.01,2013-02-27 21:19:00,
2013-02-27 16:29:00,31.1,29.8,29.71,East,83,10.0,20.0,95,0.00,,,0.00,21.00,VWS V14.01,2013-02-27 21:29:00,
2013-02-27 16:39:00,31.0,29.7,29.72,East,83,8.0,20.0,95,0.00,,,0.00,25.00,VWS V14.01,2013-02-27 21:39:00,
2013-02-27 16:49:00,30.8,29.5,29.72,East,83,9.0,19.0,95,0.00,,,0.00,14.00,VWS V14.01,2013-02-27 21:49:00,
2013-02-27 16:59:00,30.7,29.4,29.72,East,83,6.0,20.0,95,0.00,,,0.00,9.00,VWS V14.01,2013-02-27 21:59:00,
2013-02-27 17:09:00,30.6,29.3,29.73,East,83,5.0,16.0,95,0.00,,,0.00,5.00,VWS V14.01,2013-02-27 22:09:00,
2013-02-27 17:19:00,30.5,29.2,29.72,East,83,5.0,17.0,95,0.00,,,0.00,0.00,VWS V14.01,2013-02-27 22:19:00,
2013-02-27 17:29:00,30.4,29.1,29.72,East,83,11.0,11.0,95,0.00,,,0.00,0.00,VWS V14.01,2013-02-27 22:29:00,
2013-02-27 17:39:00,30.3,29.0,29.72,East,83,8.0,16.0,95,0.00,,,0.00,0.00,VWS V14.01,2013-02-27 22:39:00,
2013-02-27 17:49:00,30.2,28.9,29.72,East,83,10.0,16.0,95,0.00,,,0.00,0.00,VWS V14.01,2013-02-27 22:49:00,
2013-02-27 17:59:00,30.1,28.8,29.72,East,83,8.0,17.0,95,0.00,,,0.00,0.00,VWS V14.01,2013-02-27 22:59:00,
2013-02-27 18:09:00,29.9,28.6,29.72,East,83,9.0,20.0,95,0.00,,,0.00,0.00,VWS V14.01,2013-02-27 23:09:00,
2013-02-27 18:19:00,29.8,28.5,29.71,East,83,8.0,18.0,95,0.00,,,0.00,0.00,VWS V14.01,2013-02-27 23:19:00,
2013-02-27 18:29:00,29.7,28.5,29.71,East,83,5.0,15.0,95,0.00,,,0.00,0.00,VWS V14.01,2013-02-27 23:29:00,
2013-02-27 18:39:00,29.6,28.4,29.70,East,83,10.0,15.0,95,0.00,,,0.00,0.00,VWS V14.01,2013-02-27 23:39:00,
2013-02-27 18:49:00,29.4,28.1,29.70,East,83,8.0,15.0,95,0.00,,,0.00,0.00,VWS V14.01,2013-02-27 23:49:00,
2013-02-27 18:59:00,29.3,28.0,29.70,East,83,3.0,16.0,95,0.00,,,0.00,0.00,VWS V14.01,2013-02-27 23:59:00,
2013-02-27 19:09:00,29.3,28.0,29.69,East,83,6.0,15.0,95,0.00,,,0.00,0.00,VWS V14.01,2013-02-28 00:09:00,
2013-02-27 19:19:00,29.1,27.9,29.67,East,83,3.0,16.0,95,0.00,,,0.00,0.00,VWS V14.01,2013-02-28 00:19:00,
2013-02-27 19:29:00,29.0,27.8,29.67,East,83,11.0,18.0,95,0.00,,,0.00,0.00,VWS V14.01,2013-02-28 00:29:00,
2013-02-27 19:39:00,28.9,27.6,29.67,East,83,5.0,18.0,95,0.00,,,0.00,0.00,VWS V14.01,2013-02-28 00:39:00,
2013-02-27 19:49:00,28.8,27.5,29.67,East,83,5.0,15.0,95,0.00,,,0.00,0.00,VWS V14.01,2013-02-28 00:49:00,
2013-02-27 19:59:00,28.8,27.5,29.68,East,83,8.0,16.0,95,0.00,,,0.00,0.00,VWS V14.01,2013-02-28 00:59:00,
2013-02-27 20:09:00,28.8,27.5,29.68,East,83,8.0,15.0,95,0.00,,,0.00,0.00,VWS V14.01,2013-02-28 01:09:00,
2013-02-27 20:19:00,28.8,27.5,29.67,East,83,6.0,15.0,95,0.00,,,0.00,0.00,VWS V14.01,2013-02-28 01:19:00,
2013-02-27 20:29:00,28.8,27.5,29.67,East,83,11.0,13.0,95,0.00,,,0.00,0.00,VWS V14.01,2013-02-28 01:29:00,
2013-02-27 20:39:00,28.7,27.5,29.67,East,83,8.0,13.0,95,0.00,,,0.00,0.00,VWS V14.01,2013-02-28 01:39:00,
2013-02-27 20:49:00,28.7,27.5,29.67,East,83,6.0,13.0,95,0.00,,,0.00,0.00,VWS V14.01,2013-02-28 01:49:00,
2013-02-27 20:59:00,28.7,27.5,29.67,East,83,5.0,10.0,95,0.00,,,0.00,0.00,VWS V14.01,2013-02-28 01:59:00,
2013-02-27 21:09:00,28.7,27.5,29.67,East,83,3.0,11.0,95,0.00,,,0.00,0.00,VWS V14.01,2013-02-28 02:09:00,
2013-02-27 21:19:00,28.6,27.4,29.66,East,83,5.0,11.0,95,0.00,,,0.00,0.00,VWS V14.01,2013-02-28 02:19:00,
2013-02-27 21:29:00,28.6,27.4,29.65,East,83,6.0,15.0,95,0.00,,,0.00,0.00,VWS V14.01,2013-02-28 02:29:00,
2013-02-27 21:39:00,28.5,27.2,29.65,East,83,7.0,13.0,95,0.00,,,0.00,0.00,VWS V14.01,2013-02-28 02:39:00,
2013-02-27 21:49:00,28.4,27.1,29.64,East,83,6.0,15.0,95,0.00,,-RA,0.00,0.00,VWS V14.01,2013-02-28 02:49:00,
2013-02-27 21:59:00,28.3,27.0,29.64,East,83,6.0,15.0,95,0.00,,-RA,0.00,0.00,VWS V14.01,2013-02-28 02:59:00,
2013-02-27 22:09:00,28.2,27.0,29.63,East,83,5.0,14.0,95,0.00,,-RA,0.00,0.00,VWS V14.01,2013-02-28 03:09:00,
2013-02-27 22:19:00,28.1,26.9,29.63,East,83,6.0,10.0,95,0.00,,-RA,0.00,0.00,VWS V14.01,2013-02-28 03:19:00,
2013-02-27 22:29:00,28.1,26.9,29.62,East,83,2.0,14.0,95,0.00,,-RA,0.00,0.00,VWS V14.01,2013-02-28 03:29:00,
2013-02-27 22:39:00,28.1,26.9,29.62,East,83,3.0,14.0,95,0.00,,-RA,0.00,0.00,VWS V14.01,2013-02-28 03:39:00,
2013-02-27 22:49:00,28.1,26.9,29.62,East,83,3.0,14.0,95,0.00,,-RA,0.00,0.00,VWS V14.01,2013-02-28 03:49:00,
2013-02-27 22:59:00,28.1,26.9,29.62,East,83,5.0,11.0,95,0.00,,-RA,0.00,0.00,VWS V14.01,2013-02-28 03:59:00,
2013-02-27 23:09:00,28.1,26.9,29.62,East,83,6.0,11.0,95,0.00,,-RA,0.00,0.00,VWS V14.01,2013-02-28 04:09:00,
2013-02-27 23:19:00,28.1,26.9,29.63,East,83,1.0,11.0,95,0.00,,-RA,0.00,0.00,VWS V14.01,2013-02-28 04:19:00,
2013-02-27 23:29:00,28.1,26.9,29.63,East,83,5.0,9.0,95,0.00,,-RA,0.00,0.00,VWS V14.01,2013-02-28 04:29:00,
2013-02-27 23:39:00,28.0,26.8,29.62,East,83,0.0,8.0,95,0.00,,-RA,0.00,0.00,VWS V14.01,2013-02-28 04:39:00,
2013-02-27 23:49:00,28.0,26.8,29.61,East,83,1.0,8.0,95,0.00,,,0.00,0.00,VWS V14.01,2013-02-28 04:49:00,
2013-02-27 23:59:00,28.0,26.8,29.61,East,83,2.0,11.0,95,0.00,,,0.00,0.00,VWS V14.01,2013-02-28 04:59:00,